This is the latest recevied weather packets stored in our database for station/object DO7ZT-10. If no packets are shown the sender has not sent any weather packets the latest 10 day(s).
| Time | Temp. | Humidity | Pressure | Rain* | Wind** | Luminosity | Snow |
|---|---|---|---|---|---|---|---|
| 1788101224 | 26.11° C | 38% | 1014 hPa | - | - | - | - |
| 1788100324 | 26.11° C | 38% | 1013.9 hPa | - | - | - | - |
| 1788099424 | 26.11° C | 42% | 1014 hPa | - | - | - | - |
| 1788098524 | 26.11° C | 40% | 1014.1 hPa | - | - | - | - |
| 1788097624 | 25.56° C | 42% | 1014.1 hPa | - | - | - | - |
| 1788096724 | 25° C | 41% | 1014.2 hPa | - | - | - | - |
| 1788095824 | 25° C | 44% | 1014.2 hPa | - | - | - | - |
| 1788094923 | 25° C | 42% | 1014.2 hPa | - | - | - | - |
| 1788094023 | 24.44° C | 44% | 1014.1 hPa | - | - | - | - |
| 1788093123 | 25° C | 46% | 1014.2 hPa | - | - | - | - |
| 1788092223 | 24.44° C | 44% | 1014.2 hPa | - | - | - | - |
| 1788091323 | 24.44° C | 49% | 1014.1 hPa | - | - | - | - |
| 1788090423 | 24.44° C | 48% | 1014.1 hPa | - | - | - | - |
| 1788089523 | 25.56° C | 44% | 1014.1 hPa | - | - | - | - |
| 1788088623 | 25° C | 45% | 1014.1 hPa | - | - | - | - |
| 1788087723 | 25.56° C | 47% | 1014.1 hPa | - | - | - | - |
| 1788086823 | 25.56° C | 46% | 1014.2 hPa | - | - | - | - |
| 1788085923 | 24.44° C | 51% | 1014.2 hPa | - | - | - | - |
| 1788085023 | 23.89° C | 48% | 1014.4 hPa | - | - | - | - |
| 1788084123 | 24.44° C | 48% | 1014.4 hPa | - | - | - | - |
| 1788083223 | 23.89° C | 51% | 1014.5 hPa | - | - | - | - |
| 1788082323 | 23.89° C | 51% | 1014.6 hPa | - | - | - | - |
| 1788081422 | 23.33° C | 52% | 1014.7 hPa | - | - | - | - |
| 1788080522 | 22.78° C | 51% | 1014.7 hPa | - | - | - | - |
| 1788079622 | 22.78° C | 52% | 1014.6 hPa | - | - | - | - |
* Rain since midnight (hover to see other rain measurements)
** Current wind speed in m/s (hover to see current wind gust speed)